User: anonymous   Login
Location: Chippewa Lake
(41.0698°N, 81.9010°W)
Time: 03:36:46
(UTC+00:00)
Language:

SL-8 Rocket - Orbit

View from above orbital plane
View from above orbital plane
View from above satellite
View from above satellite

Ground track
Ground track

The orbit data is extracted from the following two-line orbital elements,

1 21088U 91006B   21207.62488383  .00000068  00000-0  52529-4 0  9990
2 21088  82.9443 344.7198 0023937  80.4667 290.4344 13.77174049531842
Epoch (UTC): 26 July 2021 14:59:49
Eccentricity: 0.0023937
inclination: 82.9443°
perigee height: 956 km
apogee height: 991 km
right ascension of ascending node: 344.7198°
argument of perigee: 80.4667°
revolutions per day: 13.77174049
mean anomaly at epoch: 290.4344°
orbit number at epoch: 53184

The dashed part of the orbit path shows where the satellite is in the earth's shadow,  

DLR